Home > Weather > Everett > Past weeks

Flag for U.S.A. Weather for the Past 2 Weeks in Everett, Washington, U.S.A.

Now
44 °F

More clouds than sun.


Feels Like: 44 °F
Forecast: 42 / 51 °F
Wind: No wind

Location: Snohomish County Airport

Current Time: Feb 6, 2016 at 1:02:40 PM

Latest Report: Feb 6, 2016 at 11:53 AM


Visibility: 10 mi

Pressure: 30.48 "Hg

Humidity: 79%

Dew point: 38 °F

Location of EverettLocation

Historic Weather in Everett — Graph

°F

Everett Temperature Yesterday

Maximum temperature yesterday: 53 °F (at 10:53 AM)
Minimum temperature yesterday: 43 °F (at 10:53 PM)
Average temperature yesterday: 47 °F

High & Low Weather Summary for the Past Weeks

 TemperatureHumidityPressure
High54 °F (Jan 26, 2:53 PM)93% (Jan 23, 2:53 PM)30.48 "Hg (Jan 23, 2:53 PM)
Low37 °F (Feb 2, 6:53 AM)55% (Feb 5, 1:53 PM)29.61 "Hg (Jan 29, 8:53 AM)
Average45 °F80%30.07 "Hg
* Reported Jan 22 11:53 AM — Feb 6 11:53 AM, Everett, Weather by CustomWeather, © 2016

Note: Actual official high and low records may vary slightly from our data, if they occured in-between our weather recording intervals... More about our weather records

Advertising

Everett Weather History for the Previous 24 Hours

 ConditionsComfort  
Time TempWeatherWind HumidityBarometerVisibility
11:53 AM
Sat, Feb 6
44 °FMore clouds than sun.No wind79%30.48 "Hg10 mi
10:53 AM44 °FOvercast.3 mph79%30.48 "Hg10 mi
9:53 AM43 °FOvercast.6 mph79%30.46 "Hg10 mi
8:53 AM43 °FMore clouds than sun.7 mph82%30.45 "Hg10 mi
7:53 AM42 °FOvercast.8 mph85%30.42 "Hg10 mi
6:53 AM42 °FOvercast.9 mph85%30.40 "Hg10 mi
5:53 AM41 °FPassing clouds.10 mph82%30.37 "Hg10 mi
4:53 AM41 °FPassing clouds.10 mph82%30.35 "Hg10 mi
3:53 AM41 °FPartly cloudy.10 mph82%30.32 "Hg10 mi
2:53 AM41 °FPassing clouds.12 mph86%30.29 "Hg10 mi
1:53 AM42 °FClear.12 mph79%30.26 "Hg10 mi
12:53 AM43 °FClear.15 mph79%30.23 "Hg10 mi
11:53 PM
Fri, Feb 5
44 °FOvercast.13 mph82%30.22 "Hg10 mi
10:53 PM43 °FLight rain. Overcast.8 mph86%30.19 "Hg9 mi
9:53 PM46 °FLight rain. Mostly cloudy.23 mph79%30.13 "Hg10 mi
8:53 PM48 °FPassing clouds.25 mph77%30.09 "Hg10 mi
8:02 PM48 °FPassing clouds.25 mph80%30.06 "Hg10 mi
8:00 PM48 °FPassing clouds.28 mph80%30.06 "Hg10 mi
6:53 PM48 °FLight rain. Overcast.26 mph77%30.02 "Hg10 mi
5:53 PM47 °FLight rain. Mostly cloudy.29 mph80%30.04 "Hg10 mi
4:53 PM49 °FLight rain. Mostly cloudy.20 mph71%30.01 "Hg9 mi
3:53 PM51 °FOvercast.20 mph59%29.98 "Hg10 mi
2:53 PM52 °FMostly cloudy.15 mph57%30.02 "Hg10 mi
1:53 PM53 °FSunny.14 mph55%30.04 "Hg10 mi
Weather by CustomWeather, © 2016

See weather overviewHow to use our weather pages